Regional Weather Roundup
Issued by NWS

Home | Current Version | Previous Version | Text Only | Print | Product List | Glossary Off
Versions: 1 2 3 4 5 6 7 8 9 10 11 12 13 14 15 16 17 18 19 20 21 22 23 24 25 26 27 28 29 30 31 32 33 34 35 36 37 38 39 40 41 42 43 44 45 46 47 48 49 50

000
ASUS45 KCYS 291710
RWRWY

WYOMING REGIONAL WEATHER ROUNDUP
NATIONAL WEATHER SERVICE CHEYENNE WY
1100 AM MDT TUE JUL 29 2014

NOTE:  "FAIR" INDICATES FEW OR NO CLOUDS BELOW 12,000 FEET
WITH NO SIGNIFICANT WEATHER AND/OR OBSTRUCTIONS TO VISIBILITY.

WYZ001-291800-
YELLOWSTONE NATIONAL PARK

CITY           SKY/WX    TMP DP  RH WIND       PRES   REMARKS
LK YELLOWSTONE   N/A     59  46  62 CALM      30.47S
W YELLOWSTONE  NOT AVBL

$$
WYZ002>013-054>058-071-098>099-291800-
NORTHERN WYOMING

CITY           SKY/WX    TMP DP  RH WIND       PRES   REMARKS
JACKSON        CLOUDY    70  48  46 NW15      30.33S
CODY           NOT AVBL
GREYBULL       CLOUDY    77  52  41 S14       30.23R
WORLAND        CLOUDY    69  55  60 SE21G28   30.27R
SHERIDAN       CLOUDY    70  57  63 S3        30.27S
BUFFALO        CLOUDY    69  50  50 S5        30.34F
GILLETTE       CLOUDY    65  59  81 SW8       30.29F
HULETT         FAIR      64  57  77 MISG      30.31
NEWCASTLE      FAIR      63  57  82 SW5       30.32

$$
WYZ014>020-022>026-101>103-291800-
CENTRAL WYOMING

CITY           SKY/WX    TMP DP  RH WIND       PRES   REMARKS
BIG PINEY      CLOUDY    66  46  48 S7        30.38S
PINEDALE       LGT RAIN  59  52  77 CALM      30.40R
DUBOIS         LGT RAIN  55  50  82 SE8       30.43R
LANDER         LGT RAIN  63  55  75 N6        30.36R
RIVERTON       LGT RAIN  60  58  92 NE9       30.36S
CASPER         CLOUDY    69  51  52 NE17      30.31F
DOUGLAS        MOSUNNY   73  53  49 CALM      30.31S

$$
WYZ021-027>030-104>119-291800-
SOUTHERN WYOMING

CITY           SKY/WX    TMP DP  RH WIND       PRES   REMARKS
EVANSTON       RAIN      58  56  93 E3        30.38R FOG
FORT BRIDGER     N/A     61  58  91 W5        30.40R
ROCK SPRINGS   LGT RAIN  65  52  62 E18       30.35S
DIXON          CLOUDY    68  53  59 SW15      30.37S
RAWLINS        PTSUNNY   72  50  45 N7        30.34F
SARATOGA       CLOUDY    68  46  45 NW3       30.36F
LARAMIE        MOSUNNY   69  51  52 NE9       30.35F THUNDER
CHEYENNE       PTSUNNY   68  57  68 N10G21    30.33R
TORRINGTON     PTSUNNY   66  58  75 VRB5      30.26F
PINE BLUFFS    FAIR      75  59  57 NE6       30.28S

$$


USA.gov is the U.S. government's official web portal to all federal, state and local government web resources and services.